Wind_Speed
15 11 12 10 2 4 1 3 4 4 4 5 9 11 12 20 19 19 19 18 18 17 15 14 13 12 11 11 12 11 9 9 8 7 6 5 4 5 2 7 8 9 8 8
9 16 15 4 5 5 3 4 2 4 3 5 4 7 10 19 23 23 22 20 18 17 16 14 12 12 13 12 11 9 8 7 6 6 4 3 4 5 7 8 6 7 9 11
20 17 9 11 10 10 9 7 4 7 8 6 7 10 10 13 19 21 20 20 19 17 15 11 11 10 11 11 11 10 9 8 5 6 5 4 4 2 4 5 7 7 9 10
19 8 12 16 14 12 15 6 4 8 11 7 4 5 8 11 16 17 21 21 21 19 16 14 11 8 4 6 9 10 9 7 7 5 4 2 1 2 3 3 7 7 7 5
16 15 17 17 16 11 14 5 6 7 11 12 10 7 7 7 9 13 20 23 23 20 18 16 11 10 4 5 9 9 4 4 4 5 2 3 1 5 1 4 7 8 8 8
10 4 14 20 19 12 11 8 9 8 7 13 4 3 6 3 7 5 11 22 23 21 18 14 13 11 9 5 6 9 7 11 3 2 4 3 9 6 6 6 6 5 7 6
13 12 8 9 14 11 15 15 12 12 9 10 5 4 5 7 5 3 5 16 21 21 19 18 15 11 11 10 8 8 8 11 20 24 8 10 12 12 17 8 6 4 6 6
14 15 16 13 14 16 19 20 15 14 10 9 3 6 4 8 7 4 5 11 16 19 18 16 14 11 11 11 9 9 12 6 9 14 7 5 14 12 12 5 7 8 10 11
12 17 6 8 14 13 12 13 20 20 6 8 8 4 9 9 5 7 9 12 15 16 16 15 13 10 9 10 9 7 5 6 4 7 7 8 7 8 7 5 6 9 12 12
8 9 9 14 12 15 13 11 13 12 14 13 9 7 9 7 9 9 11 13 14 15 15 14 12 10 9 9 8 7 9 12 13 12 12 10 7 1 2 5 7 10 11 12
10 11 11 8 14 16 13 13 11 11 14 14 13 11 7 5 9 13 14 15 16 15 16 15 13 11 10 9 12 11 12 13 13 11 8 7 5 5 5 5 7 8 11 11
18 11 13 16 11 4 11 19 20 11 14 12 13 8 4 7 10 15 17 18 17 16 15 14 14 14 13 13 14 14 13 12 8 4 4 5 6 6 5 5 7 8 8 8
16 11 12 14 14 10 11 13 11 14 15 12 10 13 5 7 13 16 19 19 19 19 18 17 16 15 16 16 15 14 12 10 8 7 6 6 6 6 6 5 5 6 7 7
9 15 15 13 15 18 21 19 16 19 13 15 15 17 9 12 14 18 20 21 20 19 19 19 17 16 17 17 16 15 13 11 9 7 5 4 4 4 5 5 6 6 7 7
12 16 12 16 11 9 13 19 20 18 17 19 16 14 16 16 17 20 22 22 21 21 21 21 21 20 19 18 17 14 12 10 7 6 4 4 5 6 6 7 9 10 10 10
13 11 12 15 18 16 15 17 15 18 16 15 15 16 10 10 19 24 26 24 23 23 23 22 21 20 19 17 16 14 11 7 3 3 3 5 5 5 7 9 9 9 9 11
5 11 9 15 18 14 18 19 19 17 16 15 16 16 9 13 19 26 28 26 25 25 24 24 22 20 18 17 16 12 8 5 1 2 4 5 6 8 9 8 10 11 11 10
7 7 7 11 9 17 14 16 20 20 16 15 15 4 10 14 19 24 24 25 24 26 25 23 21 20 18 17 14 10 6 3 5 7 8 7 7 7 7 9 9 9 8 9
14 9 7 7 12 15 7 9 13 14 14 15 15 6 10 17 21 20 23 23 25 26 24 23 21 21 20 17 13 9 8 8 9 8 8 7 7 7 8 8 7 6 6 6
13 13 10 7 12 13 13 17 19 14 14 9 12 13 17 26 15 13 27 25 26 25 23 23 22 21 19 16 12 9 8 8 8 8 7 7 8 8 8 6 5 4 5 6
8 8 14 12 10 8 5 6 14 11 8 15 18 21 27 20 6 29 31 27 26 27 26 25 23 21 18 15 11 8 7 8 9 8 8 8 8 7 6 5 4 4 4 5
10 8 8 7 7 13 5 9 13 8 9 11 16 23 28 20 19 36 31 30 30 29 28 25 23 20 17 13 10 10 10 10 10 11 10 8 7 5 2 3 3 4 6 7
9 9 9 7 4 4 7 14 14 9 10 10 19 25 29 22 31 33 32 31 30 29 27 24 22 20 16 13 11 12 12 12 12 11 9 7 5 2 1 1 1 4 6 6
8 3 6 4 14 18 17 16 19 9 10 6 16 26 27 32 34 35 36 32 30 28 27 24 22 19 16 13 12 11 13 13 11 9 7 5 3 2 1 1 1 2 4 6
5 6 7 10 16 17 20 10 12 13 8 9 20 28 27 30 33 34 32 32 30 28 25 23 19 17 16 14 13 13 13 12 10 8 7 6 4 5 3 2 1 4 7 9
9 9 8 8 6 6 8 11 13 10 11 16 26 31 26 29 33 29 29 28 29 27 25 22 18 16 16 14 14 13 13 12 10 9 8 7 6 3 0 3 5 9 10 10
Wind_Direction
204 221 220 221 21 15 278 281 312 14 43 278 239 242 187 187 195 192 195 193 188 194 184 183 190 197 199 211 213 218 224 229 237 232 226 230 267 245 325 292 316 323 330 8
184 224 226 149 203 240 234 276 286 250 356 257 272 253 203 184 205 199 195 198 197 193 185 187 190 204 205 208 215 212 212 226 226 214 229 261 307 309 322 308 330 315 309 296
223 218 169 195 209 233 227 267 347 332 312 224 280 227 170 200 203 206 204 200 199 199 187 195 207 203 206 209 207 198 212 238 232 217 259 253 275 300 314 286 306 306 304 305
231 174 198 213 222 234 254 160 288 302 303 329 321 305 149 176 202 206 206 201 196 197 199 194 185 173 177 182 188 181 214 222 244 247 242 221 173 323 227 296 318 338 334 328
209 208 208 218 226 211 265 132 266 296 289 307 194 267 121 156 204 204 208 202 201 193 200 194 179 179 145 136 167 170 203 218 236 209 211 207 181 47 356 325 342 338 333 332
253 214 224 231 235 226 250 208 232 245 285 263 168 279 299 72 87 122 201 205 202 193 197 187 172 152 131 122 147 165 194 206 288 314 278 262 269 277 304 309 327 335 311 319
202 197 188 223 218 201 221 237 237 228 206 248 113 237 306 92 97 139 160 192 198 193 189 177 162 144 132 130 136 159 180 185 231 254 239 222 250 262 275 285 283 295 280 282
200 205 200 190 224 206 214 229 237 241 240 272 126 248 113 95 103 124 182 194 184 185 189 182 166 157 143 137 147 167 161 179 203 229 232 242 246 249 276 255 276 285 285 286
205 231 167 220 214 230 212 238 243 260 175 266 267 170 238 174 144 135 127 157 165 177 181 181 174 165 149 139 143 174 193 213 186 172 168 168 202 227 216 254 293 298 300 305
189 228 185 191 219 223 262 259 207 231 248 228 225 230 270 166 169 153 150 154 161 162 167 170 173 169 150 155 169 145 134 134 141 132 130 127 121 100 339 318 305 300 303 310
230 239 162 186 201 200 201 226 236 260 222 248 240 218 143 148 183 169 155 156 157 161 161 157 156 155 151 143 143 154 135 130 123 118 96 76 51 22 4 326 319 326 319 316
215 214 231 205 205 345 229 215 221 225 209 248 284 286 105 143 168 161 158 155 155 155 155 155 151 139 135 141 141 139 140 139 143 115 65 45 29 27 4 344 335 330 328 336
195 221 219 220 215 209 238 236 247 249 248 244 234 241 137 154 157 162 159 154 151 151 148 146 141 142 144 149 141 142 139 142 127 104 94 82 45 16 2 358 4 7 9 4
209 232 226 222 222 211 212 227 225 241 233 236 237 257 177 181 172 172 168 159 155 153 151 149 142 138 133 137 137 137 133 128 120 119 95 49 22 45 56 50 45 35 33 34
231 230 228 238 262 227 245 215 217 231 243 252 248 239 245 186 182 179 169 162 156 155 154 151 146 143 139 138 137 136 136 130 118 108 76 45 55 65 69 68 68 65 65 59
226 240 243 231 230 232 235 238 221 220 238 248 255 264 296 147 166 174 170 166 163 162 157 153 150 147 148 146 143 141 136 133 116 59 62 76 77 78 83 81 73 74 71 68
215 231 214 232 228 227 236 234 226 227 222 232 234 236 157 174 173 176 169 170 166 164 160 157 155 155 155 149 145 148 148 108 67 91 100 98 99 104 102 100 95 85 77 71
260 231 238 246 195 229 242 220 220 227 231 230 242 159 193 184 174 173 173 167 165 164 160 158 159 158 152 148 148 138 130 118 106 108 110 112 115 117 109 106 97 89 77 65
223 249 241 235 223 240 193 196 211 226 223 221 228 169 179 157 161 170 169 168 166 164 161 159 161 156 153 152 149 142 128 122 118 119 118 115 121 129 122 111 93 83 64 47
227 223 264 220 267 240 242 208 212 212 233 220 209 180 165 158 179 170 171 164 162 161 160 158 157 155 153 152 150 138 133 129 130 131 126 117 117 127 120 105 83 49 30 7
177 212 224 228 252 258 60 134 164 199 216 184 198 181 173 184 234 161 164 163 162 159 158 158 158 157 155 152 148 144 164 147 143 135 128 126 129 123 110 83 55 24 5 2
198 205 195 224 250 255 136 174 207 216 246 242 202 186 178 178 139 148 158 159 158 156 159 159 157 156 153 158 170 163 152 154 149 146 140 133 126 124 91 69 32 350 354 358
247 254 289 305 275 34 223 231 234 335 295 242 201 182 177 159 149 148 154 156 157 157 156 160 160 152 156 171 160 157 158 153 149 146 140 133 119 115 69 57 340 18 351 3
171 177 249 270 259 260 261 264 255 296 302 257 190 174 168 158 154 151 153 153 157 157 158 161 159 157 158 163 155 161 155 153 151 149 140 132 121 104 112 110 358 359 347 347
336 155 230 245 261 272 270 282 294 264 265 183 168 164 163 158 150 152 152 153 156 157 158 159 160 160 158 155 156 157 156 155 152 147 142 131 119 115 106 91 17 330 316 315
224 237 227 267 36 318 323 339 333 251 213 182 167 155 157 158 148 153 150 154 155 157 156 155 161 161 157 155 157 163 164 162 155 148 137 144 140 136 24 332 332 324 340 333
Height
1492 1491 1491 1481 1485 1485 1489 1492 1495 1488 1489 1492 1491 1491 1495 1506 1509 1510 1512 1515 1518 1522 1525 1529 1532 1535 1538 1540 1541 1541 1543 1545 1546 1547 1548 1550 1550 1550 1550 1548 1548 1547 1547 1546
1491 1490 1477 1482 1488 1488 1489 1493 1492 1486 1488 1489 1483 1486 1486 1495 1501 1503 1508 1511 1514 1518 1522 1526 1529 1532 1534 1537 1539 1540 1542 1543 1544 1546 1546 1547 1548 1548 1548 1547 1547 1545 1546 1545
1482 1477 1480 1486 1488 1490 1488 1490 1492 1495 1484 1483 1483 1479 1486 1489 1496 1500 1504 1508 1512 1516 1521 1524 1528 1529 1531 1533 1536 1537 1538 1540 1542 1544 1544 1544 1545 1545 1544 1546 1545 1544 1544 1542
1477 1475 1483 1484 1486 1485 1489 1482 1489 1491 1488 1492 1480 1494 1476 1480 1488 1495 1500 1504 1507 1513 1518 1522 1525 1527 1531 1531 1533 1534 1535 1536 1538 1540 1542 1543 1544 1544 1543 1543 1542 1542 1542 1542
1479 1478 1484 1484 1481 1482 1488 1485 1490 1490 1489 1485 1482 1490 1472 1478 1485 1488 1495 1498 1502 1509 1515 1519 1524 1524 1526 1529 1528 1529 1532 1535 1537 1538 1540 1540 1542 1541 1543 1541 1540 1540 1540 1540
1472 1479 1476 1474 1474 1477 1481 1488 1489 1486 1489 1501 1476 1486 1474 1470 1481 1483 1486 1492 1498 1504 1511 1516 1520 1523 1522 1526 1526 1526 1529 1531 1538 1537 1537 1538 1542 1538 1540 1540 1540 1539 1540 1539
1475 1477 1475 1475 1476 1478 1483 1485 1501 1505 1501 1499 1477 1487 1474 1468 1479 1484 1485 1488 1494 1502 1509 1513 1518 1520 1523 1525 1525 1527 1529 1529 1531 1533 1535 1536 1538 1537 1538 1538 1538 1537 1537 1537
1478 1488 1473 1472 1470 1475 1479 1476 1488 1513 1505 1495 1478 1491 1471 1473 1481 1485 1487 1489 1492 1500 1507 1513 1517 1520 1522 1524 1524 1525 1527 1528 1529 1530 1532 1535 1537 1534 1536 1535 1537 1537 1536 1535
1471 1472 1462 1466 1467 1469 1472 1482 1461 1471 1470 1492 1473 1470 1463 1470 1478 1484 1485 1488 1493 1499 1505 1511 1516 1519 1521 1522 1524 1524 1526 1526 1527 1530 1532 1533 1534 1533 1532 1533 1535 1535 1534 1533
1461 1475 1463 1464 1468 1466 1468 1460 1480 1473 1500 1506 1477 1479 1475 1471 1474 1482 1485 1489 1495 1499 1505 1510 1514 1518 1519 1521 1522 1524 1525 1526 1527 1529 1531 1532 1531 1533 1532 1532 1533 1532 1531 1529
1456 1463 1467 1464 1467 1464 1471 1471 1466 1458 1464 1484 1488 1474 1444 1460 1467 1476 1482 1489 1494 1499 1503 1508 1513 1516 1518 1520 1522 1522 1526 1526 1528 1529 1530 1531 1530 1530 1529 1530 1529 1528 1527 1527
1457 1458 1467 1464 1451 1456 1450 1457 1456 1474 1482 1471 1468 1467 1455 1458 1465 1473 1481 1487 1492 1498 1503 1508 1512 1514 1517 1521 1523 1524 1526 1527 1528 1529 1529 1529 1529 1528 1528 1528 1527 1525 1525 1524
1453 1461 1469 1467 1456 1457 1465 1457 1453 1450 1450 1463 1478 1465 1459 1463 1465 1475 1481 1486 1492 1497 1502 1507 1511 1514 1516 1519 1522 1525 1527 1528 1528 1529 1530 1530 1528 1528 1528 1527 1526 1524 1522 1522
1453 1449 1455 1461 1455 1449 1462 1457 1452 1452 1462 1460 1459 1457 1461 1462 1465 1474 1479 1486 1491 1496 1501 1505 1510 1513 1516 1519 1522 1526 1527 1528 1529 1530 1528 1527 1527 1528 1528 1527 1525 1524 1523 1522
1451 1455 1447 1447 1443 1446 1446 1449 1450 1456 1450 1456 1448 1447 1443 1449 1459 1470 1477 1485 1489 1494 1499 1503 1508 1512 1516 1519 1522 1525 1527 1528 1528 1529 1528 1526 1526 1527 1527 1526 1524 1523 1523 1522
1448 1453 1448 1452 1444 1444 1449 1444 1440 1445 1447 1445 1445 1444 1435 1444 1457 1467 1474 1482 1487 1492 1497 1502 1507 1512 1516 1519 1521 1525 1527 1528 1528 1528 1526 1526 1526 1525 1525 1525 1525 1525 1525 1523
1448 1447 1454 1457 1441 1443 1454 1441 1439 1440 1438 1440 1447 1437 1440 1447 1454 1464 1470 1476 1482 1489 1496 1501 1506 1512 1516 1519 1522 1524 1526 1526 1527 1526 1526 1526 1526 1526 1526 1526 1526 1526 1526 1525
1448 1449 1443 1446 1442 1467 1431 1419 1425 1432 1430 1429 1430 1436 1441 1445 1456 1464 1469 1474 1482 1488 1494 1500 1506 1511 1515 1519 1522 1523 1524 1524 1524 1525 1526 1527 1528 1528 1528 1527 1527 1527 1528 1526
1445 1446 1445 1450 1447 1432 1428 1426 1429 1431 1431 1426 1429 1436 1443 1448 1458 1465 1468 1474 1480 1487 1494 1500 1506 1511 1514 1517 1518 1520 1522 1523 1524 1525 1526 1526 1527 1529 1529 1528 1528 1528 1528 1527
1440 1443 1446 1437 1448 1448 1420 1411 1417 1415 1432 1417 1425 1434 1439 1447 1453 1453 1464 1471 1479 1486 1493 1499 1505 1509 1512 1515 1517 1518 1521 1523 1524 1524 1525 1525 1526 1528 1528 1528 1528 1528 1528 1527
1445 1446 1447 1438 1441 1420 1407 1410 1419 1439 1429 1413 1421 1428 1436 1441 1436 1446 1462 1470 1478 1484 1491 1497 1502 1506 1510 1514 1516 1518 1519 1522 1522 1523 1525 1526 1528 1528 1528 1528 1528 1529 1528 1526
1433 1435 1434 1432 1439 1445 1414 1418 1421 1411 1410 1413 1419 1426 1433 1439 1443 1448 1461 1469 1476 1482 1489 1496 1501 1505 1508 1512 1515 1517 1519 1520 1521 1522 1524 1526 1527 1529 1528 1528 1528 1529 1527 1525
1435 1426 1426 1423 1419 1416 1415 1411 1412 1414 1414 1415 1417 1423 1432 1439 1444 1451 1461 1470 1476 1481 1489 1496 1500 1503 1507 1510 1513 1516 1517 1519 1521 1523 1524 1525 1526 1528 1528 1528 1528 1529 1528 1526
1421 1429 1429 1430 1419 1415 1416 1415 1416 1419 1419 1417 1419 1425 1433 1437 1443 1449 1458 1465 1475 1481 1488 1495 1498 1501 1504 1508 1512 1514 1515 1518 1521 1522 1523 1524 1526 1526 1527 1529 1529 1528 1528 1526
1424 1428 1424 1423 1418 1416 1414 1416 1416 1417 1419 1419 1421 1426 1434 1441 1443 1450 1457 1465 1473 1480 1487 1493 1498 1501 1503 1506 1510 1512 1514 1517 1520 1521 1522 1524 1526 1526 1527 1528 1528 1528 1527 1525
1425 1421 1422 1415 1417 1418 1416 1417 1417 1417 1417 1420 1424 1425 1435 1442 1442 1454 1461 1468 1473 1480 1485 1491 1497 1501 1502 1505 1508 1512 1514 1517 1518 1520 1521 1524 1526 1527 1528 1527 1526 1525 1524 1522